| time (UTC) | temp F | wind direction | speed MPH | gust MPH | rain 1hr in | rain 24hr in | rain mn in | humidity % | barometer mb |
| 20260510170042 | 63 | 0.0 | 4.0 | 0.00 | 0.00 | 0.00 | 48 | 1012.3 | |
| 20260510164536 | 61 | 0.0 | 2.0 | 0.00 | 0.00 | 0.00 | 50 | 1012.3 | |
| 20260510163030 | 60 | 0.0 | 3.0 | 0.00 | 0.00 | 0.00 | 50 | 1012.7 | |
| 20260510161533 | 59 | 0.0 | 0.0 | 0.00 | 0.00 | 0.00 | 54 | 1012.8 | |
| 20260510160034 | 58 | 0.0 | 4.0 | 0.00 | 0.00 | 0.00 | 57 | 1013.1 | |
| 20260510154528 | 57 | 2.0 | 6.0 | 0.00 | 0.00 | 0.00 | 56 | 1013.1 | |
| 20260510153033 | 56 | 2.0 | 5.0 | 0.00 | 0.00 | 0.00 | 59 | 1013.3 | |
| 20260510151525 | 55 | 1.0 | 3.0 | 0.00 | 0.00 | 0.00 | 59 | 1013.4 | |
| 20260510150038 | 55 | 0.0 | 2.0 | 0.00 | 0.00 | 0.00 | 59 | 1013.4 | |
| 20260510144525 | 54 | 0.0 | 3.0 | 0.00 | 0.00 | 0.00 | 58 | 1013.2 | |
| 20260510143025 | 53 | 0.0 | 2.0 | 0.00 | 0.00 | 0.00 | 61 | 1013.3 | |
| 20260510141529 | 53 | 0.0 | 0.0 | 0.00 | 0.00 | 0.00 | 61 | 1013.1 | |
| 20260510140022 | 51 | 1.0 | 3.0 | 0.00 | 0.00 | 0.00 | 62 | 1013.3 | |
| 20260510134522 | 51 | 0.0 | 0.0 | 0.00 | 0.00 | 0.00 | 63 | 1013.2 | |
| 20260510133023 | 51 | 0.0 | 0.0 | 0.00 | 0.00 | 0.00 | 62 | 1013.3 | |
| 20260510131518 | 50 | 0.0 | 0.0 | 0.00 | 0.00 | 0.00 | 62 | 1013.3 | |
| 20260510130018 | 51 | 0.0 | 0.0 | 0.00 | 0.00 | 0.00 | 61 | 1013.2 | |
| 20260510124516 | 51 | 0.0 | 0.0 | 0.00 | 0.00 | 0.00 | 60 | 1013.2 | |
| 20260510123015 | 51 | 0.0 | 0.0 | 0.00 | 0.00 | 0.00 | 60 | 1013.2 | |
| 20260510121513 | 51 | 0.0 | 0.0 | 0.00 | 0.00 | 0.00 | 60 | 1013.3 | |
| 20260510120014 | 51 | 0.0 | 0.0 | 0.00 | 0.00 | 0.00 | 58 | 1013.3 | |
| 20260510114510 | 51 | 0.0 | 0.0 | 0.00 | 0.00 | 0.00 | 58 | 1013.4 | |
| 20260510113006 | 52 | 0.0 | 0.0 | 0.00 | 0.00 | 0.00 | 57 | 1013.3 | |
| 20260510111504 | 53 | 0.0 | 0.0 | 0.00 | 0.00 | 0.00 | 56 | 1013.4 | |
| 20260510110007 | 53 | 0.0 | 0.0 | 0.00 | 0.00 | 0.00 | 55 | 1013.5 | |
| 20260510104500 | 54 | 0.0 | 0.0 | 0.00 | 0.00 | 0.00 | 55 | 1013.5 | |
| 20260510103109 | 54 | 0.0 | 1.0 | 0.00 | 0.00 | 0.00 | 53 | 1013.6 | |
| 20260510101609 | 53 | 2.0 | 5.0 | 0.00 | 0.00 | 0.00 | 56 | 1013.7 | |
| 20260510094555 | 53 | 0.0 | 4.0 | 0.00 | 0.00 | 0.00 | 54 | 1013.6 | |
| 20260510093052 | 54 | 4.0 | 5.0 | 0.00 | 0.00 | 0.00 | 54 | 1013.7 | |
| 20260510091549 | 54 | 2.0 | 4.0 | 0.00 | 0.00 | 0.00 | 53 | 1013.7 | |
| 20260510090051 | 55 | 2.0 | 3.0 | 0.00 | 0.00 | 0.00 | 51 | 1013.8 | |
| 20260510084546 | 55 | 2.0 | 4.0 | 0.00 | 0.00 | 0.00 | 51 | 1013.8 | |
| 20260510083043 | 56 | 4.0 | 5.0 | 0.00 | 0.00 | 0.00 | 51 | 1013.9 | |
| 20260510081546 | 57 | 2.0 | 4.0 | 0.00 | 0.00 | 0.00 | 49 | 1013.8 | |
| 20260510080036 | 58 | 3.0 | 5.0 | 0.00 | 0.00 | 0.00 | 47 | 1013.8 | |
| 20260510074533 | 59 | 0.0 | 1.0 | 0.00 | 0.00 | 0.00 | 45 | 1013.7 | |
| 20260510073030 | 59 | 0.0 | 0.0 | 0.00 | 0.00 | 0.00 | 44 | 1013.8 | |
| 20260510071529 | 59 | 1.0 | 2.0 | 0.00 | 0.00 | 0.00 | 45 | 1013.9 | |
| 20260510070033 | 59 | 2.0 | 4.0 | 0.00 | 0.00 | 0.00 | 44 | 1014.0 | |
| 20260510064525 | 61 | 1.0 | 3.0 | 0.00 | 0.00 | 0.00 | 42 | 1014.0 | |
| 20260510063025 | 61 | 0.0 | 0.0 | 0.00 | 0.00 | 0.00 | 42 | 1014.1 | |
| 20260510061528 | 62 | 1.0 | 4.0 | 0.00 | 0.00 | 0.00 | 41 | 1014.0 | |
| 20260510060025 | 61 | 1.0 | 4.0 | 0.00 | 0.00 | 0.00 | 42 | 1014.1 | |
| 20260510054524 | 62 | 0.0 | 0.0 | 0.00 | 0.00 | 0.00 | 41 | 1014.1 | |
| 20260510053022 | 64 | 0.0 | 2.0 | 0.00 | 0.00 | 0.00 | 38 | 1014.0 | |
| 20260510051531 | 65 | 4.0 | 8.0 | 0.00 | 0.00 | 0.00 | 36 | 1014.1 | |
| 20260510050022 | 65 | 3.0 | 8.0 | 0.00 | 0.00 | 0.00 | 37 | 1014.0 | |
| 20260510044522 | 64 | 6.0 | 8.0 | 0.00 | 0.00 | 0.00 | 39 | 1014.0 | |
| 20260510043024 | 65 | 3.0 | 8.0 | 0.00 | 0.00 | 0.00 | 38 | 1014.0 | |
| 20260510041520 | 66 | 4.0 | 9.0 | 0.00 | 0.00 | 0.00 | 38 | 1013.7 | |
| 20260510040021 | 67 | 4.0 | 8.0 | 0.00 | 0.00 | 0.00 | 36 | 1013.6 | |
| 20260510034520 | 67 | 5.0 | 9.0 | 0.00 | 0.00 | 0.00 | 35 | 1013.5 | |
| 20260510033020 | 68 | 5.0 | 8.0 | 0.00 | 0.00 | 0.00 | 34 | 1013.2 | |
| 20260510031519 | 69 | 5.0 | 8.0 | 0.00 | 0.00 | 0.00 | 32 | 1013.1 | |
| 20260510030018 | 70 | 3.0 | 6.0 | 0.00 | 0.00 | 0.00 | 29 | 1013.0 | |
| 20260510024516 | 71 | 5.0 | 6.0 | 0.00 | 0.00 | 0.00 | 28 | 1013.2 | |
| 20260510023015 | 72 | 4.0 | 7.0 | 0.00 | 0.00 | 0.00 | 28 | 1013.2 | |
| 20260510021520 | 73 | 4.0 | 5.0 | 0.00 | 0.00 | 0.00 | 28 | 1013.2 | |
| 20260510020013 | 73 | 3.0 | 6.0 | 0.00 | 0.00 | 0.00 | 29 | 1013.3 | |
| 20260510014515 | 73 | 2.0 | 9.0 | 0.00 | 0.00 | 0.00 | 28 | 1013.4 | |
| 20260510013013 | 74 | 2.0 | 3.0 | 0.00 | 0.00 | 0.00 | 28 | 1013.5 | |
| 20260510011509 | 75 | 0.0 | 5.0 | 0.00 | 0.00 | 0.00 | 26 | 1013.6 | |
| 20260510010007 | 76 | 0.0 | 4.0 | 0.00 | 0.00 | 0.00 | 27 | 1013.7 | |
| 20260510004504 | 75 | 1.0 | 5.0 | 0.00 | 0.00 | 0.00 | 27 | 1013.8 | |
| 20260510003003 | 76 | 1.0 | 4.0 | 0.00 | 0.00 | 0.00 | 26 | 1013.7 | |
| 20260510001505 | 76 | 1.0 | 7.0 | 0.00 | 0.00 | 0.00 | 27 | 1013.9 | |
| 20260509234558 | 76 | 1.0 | 7.0 | 0.00 | 0.00 | 0.00 | 27 | 1014.1 | |
| 20260509233056 | 76 | 2.0 | 7.0 | 0.00 | 0.00 | 0.00 | 26 | 1014.2 | |
| 20260509231605 | 76 | 0.0 | 7.0 | 0.00 | 0.00 | 0.00 | 26 | 1014.4 | |
| 20260509230052 | 76 | 1.0 | 4.0 | 0.00 | 0.00 | 0.00 | 27 | 1014.5 | |
| 20260509224550 | 77 | 0.0 | 4.0 | 0.00 | 0.00 | 0.00 | 26 | 1014.8 | |
| 20260509223051 | 76 | 1.0 | 5.0 | 0.00 | 0.00 | 0.00 | 27 | 1015.0 | |
| 20260509221547 | 76 | 0.0 | 4.0 | 0.00 | 0.00 | 0.00 | 26 | 1015.3 | |
| 20260509220045 | 76 | 3.0 | 8.0 | 0.00 | 0.00 | 0.00 | 28 | 1015.5 | |
| 20260509214541 | 75 | 3.0 | 6.0 | 0.00 | 0.00 | 0.00 | 28 | 1015.7 | |
| 20260509213038 | 74 | 1.0 | 8.0 | 0.00 | 0.00 | 0.00 | 29 | 1015.9 | |
| 20260509211536 | 74 | 3.0 | 9.0 | 0.00 | 0.00 | 0.00 | 29 | 1016.0 | |
| 20260509210047 | 74 | 2.0 | 7.0 | 0.00 | 0.00 | 0.00 | 29 | 1016.1 | |
| 20260509204534 | 74 | 3.0 | 8.0 | 0.00 | 0.00 | 0.00 | 27 | 1016.3 | |
| 20260509203034 | 73 | 1.0 | 5.0 | 0.00 | 0.00 | 0.00 | 29 | 1016.2 | |
| 20260509201530 | 72 | 1.0 | 7.0 | 0.00 | 0.00 | 0.00 | 28 | 1016.4 | |
| 20260509200030 | 71 | 1.0 | 8.0 | 0.00 | 0.00 | 0.00 | 32 | 1016.6 | |
| 20260509194528 | 71 | 4.0 | 8.0 | 0.00 | 0.00 | 0.00 | 32 | 1016.7 | |
| 20260509193026 | 70 | 2.0 | 5.0 | 0.00 | 0.00 | 0.00 | 32 | 1016.8 | |
| 20260509191527 | 71 | 1.0 | 9.0 | 0.00 | 0.00 | 0.00 | 32 | 1017.0 | |
| 20260509190022 | 69 | 3.0 | 8.0 | 0.00 | 0.00 | 0.00 | 32 | 1017.1 | |
| 20260509184532 | 68 | 4.0 | 12.0 | 0.00 | 0.00 | 0.00 | 33 | 1017.2 | |
| 20260509183018 | 67 | 3.0 | 9.0 | 0.00 | 0.00 | 0.00 | 34 | 1017.3 | |
| 20260509181513 | 66 | 6.0 | 10.0 | 0.00 | 0.00 | 0.00 | 34 | 1017.4 | |
| 20260509180013 | 65 | 5.0 | 12.0 | 0.00 | 0.00 | 0.00 | 36 | 1017.5 | |
| 20260509174512 | 65 | 5.0 | 7.0 | 0.00 | 0.00 | 0.00 | 35 | 1017.4 | |
| 20260509173026 | 64 | 1.0 | 9.0 | 0.00 | 0.00 | 0.00 | 37 | 1017.4 | |
| 20260509171520 | 63 | 0.0 | 6.0 | 0.00 | 0.00 | 0.00 | 38 | 1017.4 |